Year,Month,Day,Hour,Minute,Value (Times are PST for barometer in hPa)
2008,01,04,00,00,993.33
2008,01,04,00,01,993.33
2008,01,04,00,02,993.33
2008,01,04,00,03,993.33
2008,01,04,00,04,993.33
2008,01,04,00,05,993.33
2008,01,04,00,06,993.33
2008,01,04,00,07,993.33
2008,01,04,00,08,993.33
2008,01,04,00,09,993.33
2008,01,04,00,10,993.33
2008,01,04,00,11,993.33
2008,01,04,00,12,993.33
2008,01,04,00,13,993.33
2008,01,04,00,14,993.33
2008,01,04,00,15,992.84
2008,01,04,00,16,992.82
2008,01,04,00,17,992.82
2008,01,04,00,18,992.82
2008,01,04,00,19,992.82
2008,01,04,00,20,992.82
2008,01,04,00,21,992.82
2008,01,04,00,22,992.82
2008,01,04,00,23,992.82
2008,01,04,00,24,992.82
2008,01,04,00,25,992.82
2008,01,04,00,26,992.82
2008,01,04,00,27,992.82
2008,01,04,00,28,992.82
2008,01,04,00,29,992.82
2008,01,04,00,30,992.86
2008,01,04,00,31,992.86
2008,01,04,00,32,992.86
2008,01,04,00,33,992.86
2008,01,04,00,34,992.86
2008,01,04,00,35,992.86
2008,01,04,00,36,992.86
2008,01,04,00,37,992.86
2008,01,04,00,38,992.86
2008,01,04,00,39,992.86
2008,01,04,00,40,992.86
2008,01,04,00,41,992.86
2008,01,04,00,42,992.86
2008,01,04,00,43,992.86
2008,01,04,00,44,992.86
2008,01,04,00,45,992.35
2008,01,04,00,46,992.35
2008,01,04,00,47,992.35
2008,01,04,00,48,992.35
2008,01,04,00,49,992.35
2008,01,04,00,50,992.35
2008,01,04,00,51,992.35
2008,01,04,00,52,992.35
2008,01,04,00,53,992.35
2008,01,04,00,54,992.35
2008,01,04,00,55,992.35
2008,01,04,00,56,992.35
2008,01,04,00,57,992.35
2008,01,04,00,58,992.35
2008,01,04,00,59,992.35
2008,01,04,01,00,992.15
2008,01,04,01,01,992.14
2008,01,04,01,02,992.14
2008,01,04,01,03,992.14
2008,01,04,01,04,992.14
2008,01,04,01,05,992.14
2008,01,04,01,06,992.14
2008,01,04,01,07,992.14
2008,01,04,01,08,992.14
2008,01,04,01,09,992.14
2008,01,04,01,10,992.14
2008,01,04,01,11,992.14
2008,01,04,01,12,992.14
2008,01,04,01,13,992.14
2008,01,04,01,14,992.14
2008,01,04,01,15,992.08
2008,01,04,01,16,992.08
2008,01,04,01,17,992.08
2008,01,04,01,18,992.08
2008,01,04,01,19,992.08
2008,01,04,01,20,992.08
2008,01,04,01,21,992.08
2008,01,04,01,22,992.08
2008,01,04,01,23,992.08
2008,01,04,01,24,992.08
2008,01,04,01,25,992.08
2008,01,04,01,26,992.08
2008,01,04,01,27,992.08
2008,01,04,01,28,992.08
2008,01,04,01,29,992.08
2008,01,04,01,30,991.33
2008,01,04,01,31,991.33
2008,01,04,01,32,991.33
2008,01,04,01,33,991.33
2008,01,04,01,34,991.33
2008,01,04,01,35,991.33
2008,01,04,01,36,991.33
2008,01,04,01,37,991.33
2008,01,04,01,38,991.33
2008,01,04,01,39,991.33
2008,01,04,01,40,991.33
2008,01,04,01,41,991.33
2008,01,04,01,42,991.33
2008,01,04,01,43,991.33
2008,01,04,01,44,991.33
2008,01,04,01,45,991.77
2008,01,04,01,46,991.77
2008,01,04,01,47,991.77
2008,01,04,01,48,991.77
2008,01,04,01,49,991.77
2008,01,04,01,50,991.77
2008,01,04,01,51,991.77
2008,01,04,01,52,991.77
2008,01,04,01,53,991.77
2008,01,04,01,54,991.77
2008,01,04,01,55,991.77
2008,01,04,01,56,991.77
2008,01,04,01,57,991.77
2008,01,04,01,58,991.77
2008,01,04,01,59,991.77
2008,01,04,02,00,991.33
2008,01,04,02,01,991.33
2008,01,04,02,02,991.33
2008,01,04,02,03,991.33
2008,01,04,02,04,991.33
2008,01,04,02,05,991.33
2008,01,04,02,06,991.33
2008,01,04,02,07,991.33
2008,01,04,02,08,991.33
2008,01,04,02,09,991.33
2008,01,04,02,10,991.33
2008,01,04,02,11,991.33
2008,01,04,02,12,991.33
2008,01,04,02,13,991.33
2008,01,04,02,14,991.33
2008,01,04,02,15,991.16
2008,01,04,02,16,991.16
2008,01,04,02,17,991.16
2008,01,04,02,18,991.16
2008,01,04,02,19,991.16
2008,01,04,02,20,991.16
2008,01,04,02,21,991.16
2008,01,04,02,22,991.16
2008,01,04,02,23,991.16
2008,01,04,02,24,991.16
2008,01,04,02,25,991.16
2008,01,04,02,26,991.16
2008,01,04,02,27,991.16
2008,01,04,02,28,991.16
2008,01,04,02,29,991.16
2008,01,04,02,30,990.21
2008,01,04,02,31,990.21
2008,01,04,02,32,990.21
2008,01,04,02,33,990.21
2008,01,04,02,34,990.21
2008,01,04,02,35,990.21
2008,01,04,02,36,990.21
2008,01,04,02,37,990.21
2008,01,04,02,38,990.21
2008,01,04,02,39,990.21
2008,01,04,02,40,990.21
2008,01,04,02,41,990.21
2008,01,04,02,42,990.21
2008,01,04,02,43,990.21
2008,01,04,02,44,990.21
2008,01,04,02,45,989.67
2008,01,04,02,46,989.67
2008,01,04,02,47,989.67
2008,01,04,02,48,989.67
2008,01,04,02,49,989.67
2008,01,04,02,50,989.67
2008,01,04,02,51,989.67
2008,01,04,02,52,989.67
2008,01,04,02,53,989.67
2008,01,04,02,54,989.67
2008,01,04,02,55,989.67
2008,01,04,02,56,989.67
2008,01,04,02,57,989.67
2008,01,04,02,58,989.67
2008,01,04,02,59,989.67
2008,01,04,03,00,989.57
2008,01,04,03,01,989.57
2008,01,04,03,02,989.57
2008,01,04,03,03,989.57
2008,01,04,03,04,989.57
2008,01,04,03,05,989.57
2008,01,04,03,06,989.57
2008,01,04,03,07,989.57
2008,01,04,03,08,989.57
2008,01,04,03,09,989.57
2008,01,04,03,10,989.57
2008,01,04,03,11,989.57
2008,01,04,03,12,989.57
2008,01,04,03,13,989.57
2008,01,04,03,14,989.57
2008,01,04,03,15,989.06
2008,01,04,03,16,989.03
2008,01,04,03,17,989.03
2008,01,04,03,18,989.03
2008,01,04,03,19,989.03
2008,01,04,03,20,989.03
2008,01,04,03,21,989.03
2008,01,04,03,22,989.03
2008,01,04,03,23,989.03
2008,01,04,03,24,989.03
2008,01,04,03,25,989.03
2008,01,04,03,26,989.03
2008,01,04,03,27,989.03
2008,01,04,03,28,989.03
2008,01,04,03,29,989.03
2008,01,04,03,30,988.68
2008,01,04,03,31,988.66
2008,01,04,03,32,988.66
2008,01,04,03,33,988.66
2008,01,04,03,34,988.66
2008,01,04,03,35,988.66
2008,01,04,03,36,988.66
2008,01,04,03,37,988.66
2008,01,04,03,38,988.66
2008,01,04,03,39,988.66
2008,01,04,03,40,988.66
2008,01,04,03,41,988.66
2008,01,04,03,42,988.66
2008,01,04,03,43,988.66
2008,01,04,03,44,988.66
2008,01,04,03,45,988.17
2008,01,04,03,46,988.15
2008,01,04,03,47,988.15
2008,01,04,03,48,988.15
2008,01,04,03,49,988.15
2008,01,04,03,50,988.15
2008,01,04,03,51,988.15
2008,01,04,03,52,988.15
2008,01,04,03,53,988.15
2008,01,04,03,54,988.15
2008,01,04,03,55,988.15
2008,01,04,03,56,988.15
2008,01,04,03,57,988.15
2008,01,04,03,58,988.15
2008,01,04,03,59,988.15
2008,01,04,04,00,987.51
2008,01,04,04,01,987.51
2008,01,04,04,02,987.51
2008,01,04,04,03,987.51
2008,01,04,04,04,987.51
2008,01,04,04,05,987.51
2008,01,04,04,06,987.51
2008,01,04,04,07,987.51
2008,01,04,04,08,987.51
2008,01,04,04,09,987.51
2008,01,04,04,10,987.51
2008,01,04,04,11,987.51
2008,01,04,04,12,987.51
2008,01,04,04,13,987.51
2008,01,04,04,14,987.51
2008,01,04,04,15,986.76
2008,01,04,04,16,986.76
2008,01,04,04,17,986.76
2008,01,04,04,18,986.76
2008,01,04,04,19,986.76
2008,01,04,04,20,986.76
2008,01,04,04,21,986.76
2008,01,04,04,22,986.76
2008,01,04,04,23,986.76
2008,01,04,04,24,986.76
2008,01,04,04,25,986.76
2008,01,04,04,26,986.76
2008,01,04,04,27,986.76
2008,01,04,04,28,986.76
2008,01,04,04,29,986.76
2008,01,04,04,30,986.05
2008,01,04,04,31,986.05
2008,01,04,04,32,986.05
2008,01,04,04,33,986.05
2008,01,04,04,34,986.05
2008,01,04,04,35,986.05
2008,01,04,04,36,986.05
2008,01,04,04,37,986.05
2008,01,04,04,38,986.05
2008,01,04,04,39,986.05
2008,01,04,04,40,986.05
2008,01,04,04,41,986.05
2008,01,04,04,42,986.05
2008,01,04,04,43,986.05
2008,01,04,04,44,986.05
2008,01,04,04,45,985.56
2008,01,04,04,46,985.54
2008,01,04,04,47,985.54
2008,01,04,04,48,985.54
2008,01,04,04,49,985.54
2008,01,04,04,50,985.54
2008,01,04,04,51,985.54
2008,01,04,04,52,985.54
2008,01,04,04,53,985.54
2008,01,04,04,54,985.54
2008,01,04,04,55,985.54
2008,01,04,04,56,985.54
2008,01,04,04,57,985.54
2008,01,04,04,58,985.54
2008,01,04,04,59,985.54
2008,01,04,05,00,984.86
2008,01,04,05,01,984.86
2008,01,04,05,02,984.86
2008,01,04,05,03,984.86
2008,01,04,05,04,984.86
2008,01,04,05,05,984.86
2008,01,04,05,06,984.86
2008,01,04,05,07,984.86
2008,01,04,05,08,984.86
2008,01,04,05,09,984.86
2008,01,04,05,10,984.86
2008,01,04,05,11,984.86
2008,01,04,05,12,984.86
2008,01,04,05,13,984.86
2008,01,04,05,14,984.86
2008,01,04,05,15,983.88
2008,01,04,05,16,983.88
2008,01,04,05,17,983.88
2008,01,04,05,18,983.88
2008,01,04,05,19,983.88
2008,01,04,05,20,983.88
2008,01,04,05,21,983.88
2008,01,04,05,22,983.88
2008,01,04,05,23,983.88
2008,01,04,05,24,983.88
2008,01,04,05,25,983.88
2008,01,04,05,26,983.88
2008,01,04,05,27,983.88
2008,01,04,05,28,983.88
2008,01,04,05,29,983.88
2008,01,04,05,30,983.30
2008,01,04,05,31,983.27
2008,01,04,05,32,983.27
2008,01,04,05,33,983.27
2008,01,04,05,34,983.27
2008,01,04,05,35,983.27
2008,01,04,05,36,983.27
2008,01,04,05,37,983.27
2008,01,04,05,38,983.27
2008,01,04,05,39,983.27
2008,01,04,05,40,983.27
2008,01,04,05,41,983.27
2008,01,04,05,42,983.27
2008,01,04,05,43,983.27
2008,01,04,05,44,983.27
2008,01,04,05,45,982.76
2008,01,04,05,46,982.73
2008,01,04,05,47,982.73
2008,01,04,05,48,982.73
2008,01,04,05,49,982.73
2008,01,04,05,50,982.73
2008,01,04,05,51,982.73
2008,01,04,05,52,982.73
2008,01,04,05,53,982.73
2008,01,04,05,54,982.73
2008,01,04,05,55,982.73
2008,01,04,05,56,982.73
2008,01,04,05,57,982.73
2008,01,04,05,58,982.73
2008,01,04,05,59,982.73
2008,01,04,06,00,982.19
2008,01,04,06,01,982.19
2008,01,04,06,02,982.19
2008,01,04,06,03,982.19
2008,01,04,06,04,982.19
2008,01,04,06,05,982.19
2008,01,04,06,06,982.19
2008,01,04,06,07,982.19
2008,01,04,06,08,982.19
2008,01,04,06,09,982.19
2008,01,04,06,10,982.19
2008,01,04,06,11,982.19
2008,01,04,06,12,982.19
2008,01,04,06,13,982.19
2008,01,04,06,14,982.19
2008,01,04,06,15,981.31
2008,01,04,06,16,981.31
2008,01,04,06,17,981.31
2008,01,04,06,18,981.31
2008,01,04,06,19,981.31
2008,01,04,06,20,981.31
2008,01,04,06,21,981.31
2008,01,04,06,22,981.31
2008,01,04,06,23,981.31
2008,01,04,06,24,981.31
2008,01,04,06,25,981.31
2008,01,04,06,26,981.31
2008,01,04,06,27,981.31
2008,01,04,06,28,981.31
2008,01,04,06,29,981.31
2008,01,04,06,30,980.60
2008,01,04,06,31,980.56
2008,01,04,06,32,980.56
2008,01,04,06,33,980.56
2008,01,04,06,34,980.56
2008,01,04,06,35,980.56
2008,01,04,06,36,980.56
2008,01,04,06,37,980.56
2008,01,04,06,38,980.56
2008,01,04,06,39,980.56
2008,01,04,06,40,980.56
2008,01,04,06,41,980.56
2008,01,04,06,42,980.56
2008,01,04,06,43,980.56
2008,01,04,06,44,980.56
2008,01,04,06,45,980.06
2008,01,04,06,46,980.06
2008,01,04,06,47,980.06
2008,01,04,06,48,980.06
2008,01,04,06,49,980.06
2008,01,04,06,50,980.06
2008,01,04,06,51,980.06
2008,01,04,06,52,980.06
2008,01,04,06,53,980.06
2008,01,04,06,54,980.06
2008,01,04,06,55,980.06
2008,01,04,06,56,980.06
2008,01,04,06,57,980.06
2008,01,04,06,58,980.06
2008,01,04,06,59,980.06
2008,01,04,07,00,979.04
2008,01,04,07,01,979.04
2008,01,04,07,02,979.04
2008,01,04,07,03,979.04
2008,01,04,07,04,979.04
2008,01,04,07,05,979.04
2008,01,04,07,06,979.04
2008,01,04,07,07,979.04
2008,01,04,07,08,979.04
2008,01,04,07,09,979.04
2008,01,04,07,10,979.04
2008,01,04,07,11,979.04
2008,01,04,07,12,979.04
2008,01,04,07,13,979.04
2008,01,04,07,14,979.04
2008,01,04,07,15,978.46
2008,01,04,07,16,978.46
2008,01,04,07,17,978.46
2008,01,04,07,18,978.46
2008,01,04,07,19,978.46
2008,01,04,07,20,978.46
2008,01,04,07,21,978.46
2008,01,04,07,22,978.46
2008,01,04,07,23,978.46
2008,01,04,07,24,978.46
2008,01,04,07,25,978.46
2008,01,04,07,26,978.46
2008,01,04,07,27,978.46
2008,01,04,07,28,978.46
2008,01,04,07,29,978.46
2008,01,04,07,30,977.95
2008,01,04,07,31,977.92
2008,01,04,07,32,977.92
2008,01,04,07,33,977.92
2008,01,04,07,34,977.92
2008,01,04,07,35,977.92
2008,01,04,07,36,977.92
2008,01,04,07,37,977.92
2008,01,04,07,38,977.92
2008,01,04,07,39,977.92
2008,01,04,07,40,977.92
2008,01,04,07,41,977.92
2008,01,04,07,42,977.92
2008,01,04,07,43,977.92
2008,01,04,07,44,977.92
2008,01,04,07,45,977.28
2008,01,04,07,46,977.28
2008,01,04,07,47,977.28
2008,01,04,07,48,977.28
2008,01,04,07,49,977.28
2008,01,04,07,50,977.28
2008,01,04,07,51,977.28
2008,01,04,07,52,977.28
2008,01,04,07,53,977.28
2008,01,04,07,54,977.28
2008,01,04,07,55,977.28
2008,01,04,07,56,977.28
2008,01,04,07,57,977.28
2008,01,04,07,58,977.28
2008,01,04,07,59,977.28
2008,01,04,08,00,976.97
2008,01,04,08,01,976.97
2008,01,04,08,02,976.97
2008,01,04,08,03,976.97
2008,01,04,08,04,976.97
2008,01,04,08,05,976.97
2008,01,04,08,06,976.97
2008,01,04,08,07,976.97
2008,01,04,08,08,976.97
2008,01,04,08,09,976.97
2008,01,04,08,10,976.97
2008,01,04,08,11,976.97
2008,01,04,08,12,976.97
2008,01,04,08,13,976.97
2008,01,04,08,14,976.97
2008,01,04,08,15,976.52
2008,01,04,08,16,976.50
2008,01,04,08,17,976.50
2008,01,04,08,18,976.50
2008,01,04,08,19,976.50
2008,01,04,08,20,976.50
2008,01,04,08,21,976.50
2008,01,04,08,22,976.50
2008,01,04,08,23,976.50
2008,01,04,08,24,976.50
2008,01,04,08,25,976.50
2008,01,04,08,26,976.50
2008,01,04,08,27,976.50
2008,01,04,08,28,976.50
2008,01,04,08,29,976.50
2008,01,04,08,30,975.99
2008,01,04,08,31,975.99
2008,01,04,08,32,975.99
2008,01,04,08,33,975.99
2008,01,04,08,34,975.99
2008,01,04,08,35,975.99
2008,01,04,08,36,975.99
2008,01,04,08,37,975.99
2008,01,04,08,38,975.99
2008,01,04,08,39,975.99
2008,01,04,08,40,975.99
2008,01,04,08,41,975.99
2008,01,04,08,42,975.99
2008,01,04,08,43,975.99
2008,01,04,08,44,975.99
2008,01,04,08,45,975.83
2008,01,04,08,46,975.82
2008,01,04,08,47,975.82
2008,01,04,08,48,975.82
2008,01,04,08,49,975.82
2008,01,04,08,50,975.82
2008,01,04,08,51,975.82
2008,01,04,08,52,975.82
2008,01,04,08,53,975.82
2008,01,04,08,54,975.82
2008,01,04,08,55,975.82
2008,01,04,08,56,975.82
2008,01,04,08,57,975.82
2008,01,04,08,58,975.82
2008,01,04,08,59,975.82
2008,01,04,09,00,975.38
2008,01,04,09,01,975.38
2008,01,04,09,02,975.38
2008,01,04,09,03,975.38
2008,01,04,09,04,975.38
2008,01,04,09,05,975.38
2008,01,04,09,06,975.38
2008,01,04,09,07,975.38
2008,01,04,09,08,975.38
2008,01,04,09,09,975.38
2008,01,04,09,10,975.38
2008,01,04,09,11,975.38
2008,01,04,09,12,975.38
2008,01,04,09,13,975.38
2008,01,04,09,14,975.38
2008,01,04,09,15,975.14
2008,01,04,09,16,975.14
2008,01,04,09,17,975.14
2008,01,04,09,18,975.14
2008,01,04,09,19,975.14
2008,01,04,09,20,975.14
2008,01,04,09,21,975.14
2008,01,04,09,22,975.14
2008,01,04,09,23,975.14
2008,01,04,09,24,975.14
2008,01,04,09,25,975.14
2008,01,04,09,26,975.14
2008,01,04,09,27,975.14
2008,01,04,09,28,975.14
2008,01,04,09,29,975.14
2008,01,04,09,30,975.18
2008,01,04,09,31,975.18
2008,01,04,09,32,975.18
2008,01,04,09,33,975.18
2008,01,04,09,34,975.18
2008,01,04,09,35,975.18
2008,01,04,09,36,975.18
2008,01,04,09,37,975.18
2008,01,04,09,38,975.18
2008,01,04,09,39,975.18
2008,01,04,09,40,975.18
2008,01,04,09,41,975.18
2008,01,04,09,42,975.18
2008,01,04,09,43,975.18
2008,01,04,09,44,975.18
2008,01,04,09,45,974.50
2008,01,04,09,46,974.50
2008,01,04,09,47,974.50
2008,01,04,09,48,974.50
2008,01,04,09,49,974.50
2008,01,04,09,50,974.50
2008,01,04,09,51,974.50
2008,01,04,09,52,974.50
2008,01,04,09,53,974.50
2008,01,04,09,54,974.50
2008,01,04,09,55,974.50
2008,01,04,09,56,974.50
2008,01,04,09,57,974.50
2008,01,04,09,58,974.50
2008,01,04,09,59,974.50
2008,01,04,10,00,973.93
2008,01,04,10,01,973.93
2008,01,04,10,02,973.93
2008,01,04,10,03,973.93
2008,01,04,10,04,973.93
2008,01,04,10,05,973.93
2008,01,04,10,06,973.93
2008,01,04,10,07,973.93
2008,01,04,10,08,973.93
2008,01,04,10,09,973.93
2008,01,04,10,10,973.93
2008,01,04,10,11,973.93
2008,01,04,10,12,973.93
2008,01,04,10,13,973.93
2008,01,04,10,14,973.93
2008,01,04,10,15,973.79
2008,01,04,10,16,973.79
2008,01,04,10,17,973.79
2008,01,04,10,18,973.79
2008,01,04,10,19,973.79
2008,01,04,10,20,973.79
2008,01,04,10,21,973.79
2008,01,04,10,22,973.79
2008,01,04,10,23,973.79
2008,01,04,10,24,973.79
2008,01,04,10,25,973.79
2008,01,04,10,26,973.79
2008,01,04,10,27,973.79
2008,01,04,10,28,973.79
2008,01,04,10,29,973.79
2008,01,04,10,30,973.21
2008,01,04,10,31,973.21
2008,01,04,10,32,973.21
2008,01,04,10,33,973.21
2008,01,04,10,34,973.21
2008,01,04,10,35,973.21
2008,01,04,10,36,973.21
2008,01,04,10,37,973.21
2008,01,04,10,38,973.21
2008,01,04,10,39,973.21
2008,01,04,10,40,973.21
2008,01,04,10,41,973.21
2008,01,04,10,42,973.21
2008,01,04,10,43,973.21
2008,01,04,10,44,973.21
2008,01,04,10,45,973.42
2008,01,04,10,46,973.42
2008,01,04,10,47,973.42
2008,01,04,10,48,973.42
2008,01,04,10,49,973.42
2008,01,04,10,50,973.42
2008,01,04,10,51,973.42
2008,01,04,10,52,973.42
2008,01,04,10,53,973.42
2008,01,04,10,54,973.42
2008,01,04,10,55,973.42
2008,01,04,10,56,973.42
2008,01,04,10,57,973.42
2008,01,04,10,58,973.42
2008,01,04,10,59,973.42
2008,01,04,11,00,973.25
2008,01,04,11,01,973.25
2008,01,04,11,02,973.25
2008,01,04,11,03,973.25
2008,01,04,11,04,973.25
2008,01,04,11,05,973.25
2008,01,04,11,06,973.25
2008,01,04,11,07,973.25
2008,01,04,11,08,973.25
2008,01,04,11,09,973.25
2008,01,04,11,10,973.25
2008,01,04,11,11,973.25
2008,01,04,11,12,973.25
2008,01,04,11,13,973.25
2008,01,04,11,14,973.25
2008,01,04,11,15,972.96
2008,01,04,11,16,972.94
2008,01,04,11,17,972.94
2008,01,04,11,18,972.94
2008,01,04,11,19,972.94
2008,01,04,11,20,972.94
2008,01,04,11,21,972.94
2008,01,04,11,22,972.94
2008,01,04,11,23,972.94
2008,01,04,11,24,972.94
2008,01,04,11,25,972.94
2008,01,04,11,26,972.94
2008,01,04,11,27,972.94
2008,01,04,11,28,972.94
2008,01,04,11,29,972.94
2008,01,04,11,30,972.82
2008,01,04,11,31,972.81
2008,01,04,11,32,972.81
2008,01,04,11,33,972.81
2008,01,04,11,34,972.81
2008,01,04,11,35,972.81
2008,01,04,11,36,972.81
2008,01,04,11,37,972.81
2008,01,04,11,38,972.81
2008,01,04,11,39,972.81
2008,01,04,11,40,972.81
2008,01,04,11,41,972.81
2008,01,04,11,42,972.81
2008,01,04,11,43,972.81
2008,01,04,11,44,972.81
2008,01,04,11,45,972.77
2008,01,04,11,46,972.77
2008,01,04,11,47,972.77
2008,01,04,11,48,972.77
2008,01,04,11,49,972.77
2008,01,04,11,50,972.77
2008,01,04,11,51,972.77
2008,01,04,11,52,972.77
2008,01,04,11,53,972.77
2008,01,04,11,54,972.77
2008,01,04,11,55,972.77
2008,01,04,11,56,972.77
2008,01,04,11,57,972.77
2008,01,04,11,58,972.77
2008,01,04,11,59,972.77
2008,01,04,12,00,972.62
2008,01,04,12,01,972.61
2008,01,04,12,02,972.61
2008,01,04,12,03,972.61
2008,01,04,12,04,972.61
2008,01,04,12,05,972.61
2008,01,04,12,06,972.61
2008,01,04,12,07,972.61
2008,01,04,12,08,972.61
2008,01,04,12,09,972.61
2008,01,04,12,10,972.61
2008,01,04,12,11,972.61
2008,01,04,12,12,972.61
2008,01,04,12,13,972.61
2008,01,04,12,14,972.61
2008,01,04,12,15,972.33
2008,01,04,12,16,972.33
2008,01,04,12,17,972.33
2008,01,04,12,18,972.33
2008,01,04,12,19,972.33
2008,01,04,12,20,972.33
2008,01,04,12,21,972.33
2008,01,04,12,22,972.33
2008,01,04,12,23,972.33
2008,01,04,12,24,972.33
2008,01,04,12,25,972.33
2008,01,04,12,26,972.33
2008,01,04,12,27,972.33
2008,01,04,12,28,972.33
2008,01,04,12,29,972.33
2008,01,04,12,30,972.30
2008,01,04,12,31,972.30
2008,01,04,12,32,972.30
2008,01,04,12,33,972.30
2008,01,04,12,34,972.30
2008,01,04,12,35,972.30
2008,01,04,12,36,972.30
2008,01,04,12,37,972.30
2008,01,04,12,38,972.30
2008,01,04,12,39,972.30
2008,01,04,12,40,972.30
2008,01,04,12,41,972.30
2008,01,04,12,42,972.30
2008,01,04,12,43,972.30
2008,01,04,12,44,972.30
2008,01,04,12,45,972.44
2008,01,04,12,46,972.44
2008,01,04,12,47,972.44
2008,01,04,12,48,972.44
2008,01,04,12,49,972.44
2008,01,04,12,50,972.44
2008,01,04,12,51,972.44
2008,01,04,12,52,972.44
2008,01,04,12,53,972.44
2008,01,04,12,54,972.44
2008,01,04,12,55,972.44
2008,01,04,12,56,972.44
2008,01,04,12,57,972.44
2008,01,04,12,58,972.44
2008,01,04,12,59,972.44
2008,01,04,13,00,972.37
2008,01,04,13,01,972.37
2008,01,04,13,02,972.37
2008,01,04,13,03,972.37
2008,01,04,13,04,972.37
2008,01,04,13,05,972.37
2008,01,04,13,06,972.37
2008,01,04,13,07,972.37
2008,01,04,13,08,972.37
2008,01,04,13,09,972.37
2008,01,04,13,10,972.37
2008,01,04,13,11,972.37
2008,01,04,13,12,972.37
2008,01,04,13,13,972.37
2008,01,04,13,14,972.37
2008,01,04,13,15,972.71
2008,01,04,13,16,972.71
2008,01,04,13,17,972.71
2008,01,04,13,18,972.71
2008,01,04,13,19,972.71
2008,01,04,13,20,972.71
2008,01,04,13,21,972.71
2008,01,04,13,22,972.71
2008,01,04,13,23,972.71
2008,01,04,13,24,972.71
2008,01,04,13,25,972.71
2008,01,04,13,26,972.71
2008,01,04,13,27,972.71
2008,01,04,13,28,972.71
2008,01,04,13,29,972.71
2008,01,04,13,30,972.23
2008,01,04,13,31,972.23
2008,01,04,13,32,972.23
2008,01,04,13,33,972.23
2008,01,04,13,34,972.23
2008,01,04,13,35,972.23
2008,01,04,13,36,972.23
2008,01,04,13,37,972.23
2008,01,04,13,38,972.23
2008,01,04,13,39,972.23
2008,01,04,13,40,972.23
2008,01,04,13,41,972.23
2008,01,04,13,42,972.23
2008,01,04,13,43,972.23
2008,01,04,13,44,972.23
2008,01,04,13,45,972.23
2008,01,04,13,46,972.23
2008,01,04,13,47,972.23
2008,01,04,13,48,972.23
2008,01,04,13,49,972.23
2008,01,04,13,50,972.23
2008,01,04,13,51,972.23
2008,01,04,13,52,972.23
2008,01,04,13,53,972.23
2008,01,04,13,54,972.23
2008,01,04,13,55,972.23
2008,01,04,13,56,972.23
2008,01,04,13,57,972.23
2008,01,04,13,58,972.23
2008,01,04,13,59,972.23
2008,01,04,14,00,971.79
2008,01,04,14,01,971.79
2008,01,04,14,02,971.79
2008,01,04,14,03,971.79
2008,01,04,14,04,971.79
2008,01,04,14,05,971.79
2008,01,04,14,06,971.79
2008,01,04,14,07,971.79
2008,01,04,14,08,971.79
2008,01,04,14,09,971.79
2008,01,04,14,10,971.79
2008,01,04,14,11,971.79
2008,01,04,14,12,971.79
2008,01,04,14,13,971.79
2008,01,04,14,14,971.79
2008,01,04,14,15,972.13
2008,01,04,14,16,972.13
2008,01,04,14,17,972.13
2008,01,04,14,18,972.13
2008,01,04,14,19,972.13
2008,01,04,14,20,972.13
2008,01,04,14,21,972.13
2008,01,04,14,22,972.13
2008,01,04,14,23,972.13
2008,01,04,14,24,972.13
2008,01,04,14,25,972.13
2008,01,04,14,26,972.13
2008,01,04,14,27,972.13
2008,01,04,14,28,972.13
2008,01,04,14,29,972.13
2008,01,04,14,30,971.79
2008,01,04,14,31,971.79
2008,01,04,14,32,971.79
2008,01,04,14,33,971.79
2008,01,04,14,34,971.79
2008,01,04,14,35,971.79
2008,01,04,14,36,971.79
2008,01,04,14,37,971.79
2008,01,04,14,38,971.79
2008,01,04,14,39,971.79
2008,01,04,14,40,971.79
2008,01,04,14,41,971.79
2008,01,04,14,42,971.79
2008,01,04,14,43,971.79
2008,01,04,14,44,971.79
2008,01,04,14,45,971.89
2008,01,04,14,46,971.89
2008,01,04,14,47,971.89
2008,01,04,14,48,971.89
2008,01,04,14,49,971.89
2008,01,04,14,50,971.89
2008,01,04,14,51,971.89
2008,01,04,14,52,971.89
2008,01,04,14,53,971.89
2008,01,04,14,54,971.89
2008,01,04,14,55,971.89
2008,01,04,14,56,971.89
2008,01,04,14,57,971.89
2008,01,04,14,58,971.89
2008,01,04,14,59,971.89
2008,01,04,15,00,971.76
2008,01,04,15,01,971.76
2008,01,04,15,02,971.76
2008,01,04,15,03,971.76
2008,01,04,15,04,971.76
2008,01,04,15,05,971.76
2008,01,04,15,06,971.76
2008,01,04,15,07,971.76
2008,01,04,15,08,971.76
2008,01,04,15,09,971.76
2008,01,04,15,10,971.76
2008,01,04,15,11,971.76
2008,01,04,15,12,971.76
2008,01,04,15,13,971.76
2008,01,04,15,14,971.76
2008,01,04,15,15,971.76
2008,01,04,15,16,971.76
2008,01,04,15,17,971.76
2008,01,04,15,18,971.76
2008,01,04,15,19,971.76
2008,01,04,15,20,971.76
2008,01,04,15,21,971.76
2008,01,04,15,22,971.76
2008,01,04,15,23,971.76
2008,01,04,15,24,971.76
2008,01,04,15,25,971.76
2008,01,04,15,26,971.76
2008,01,04,15,27,971.76
2008,01,04,15,28,971.76
2008,01,04,15,29,971.76
2008,01,04,15,30,971.86
2008,01,04,15,31,971.86
2008,01,04,15,32,971.86
2008,01,04,15,33,971.86
2008,01,04,15,34,971.86
2008,01,04,15,35,971.86
2008,01,04,15,36,971.86
2008,01,04,15,37,971.86
2008,01,04,15,38,971.86
2008,01,04,15,39,971.86
2008,01,04,15,40,971.86
2008,01,04,15,41,971.86
2008,01,04,15,42,971.86
2008,01,04,15,43,971.86
2008,01,04,15,44,971.86
2008,01,04,15,45,971.79
2008,01,04,15,46,971.79
2008,01,04,15,47,971.79
2008,01,04,15,48,971.79
2008,01,04,15,49,971.79
2008,01,04,15,50,971.79
2008,01,04,15,51,971.79
2008,01,04,15,52,971.79
2008,01,04,15,53,971.79
2008,01,04,15,54,971.79
2008,01,04,15,55,971.79
2008,01,04,15,56,971.79
2008,01,04,15,57,971.79
2008,01,04,15,58,971.79
2008,01,04,15,59,971.79
2008,01,04,16,00,971.18
2008,01,04,16,01,971.18
2008,01,04,16,02,971.18
2008,01,04,16,03,971.18
2008,01,04,16,04,971.18
2008,01,04,16,05,971.18
2008,01,04,16,06,971.18
2008,01,04,16,07,971.18
2008,01,04,16,08,971.18
2008,01,04,16,09,971.18
2008,01,04,16,10,971.18
2008,01,04,16,11,971.18
2008,01,04,16,12,971.18
2008,01,04,16,13,971.18
2008,01,04,16,14,971.18
2008,01,04,16,15,970.74
2008,01,04,16,16,970.74
2008,01,04,16,17,970.74
2008,01,04,16,18,970.74
2008,01,04,16,19,970.74
2008,01,04,16,20,970.74
2008,01,04,16,21,970.74
2008,01,04,16,22,970.74
2008,01,04,16,23,970.74
2008,01,04,16,24,970.74
2008,01,04,16,25,970.74
2008,01,04,16,26,970.74
2008,01,04,16,27,970.74
2008,01,04,16,28,970.74
2008,01,04,16,29,970.74
2008,01,04,16,30,970.74
2008,01,04,16,31,970.74
2008,01,04,16,32,970.74
2008,01,04,16,33,970.74
2008,01,04,16,34,970.74
2008,01,04,16,35,970.74
2008,01,04,16,36,970.74